| time (UTC) | temp F | wind direction | speed MPH | gust MPH | rain 1hr in | rain 24hr in | rain mn in | humidity % | barometer mb |
| 20260504033520 | 51 | 0.0 | 0.0 | 0.00 | 0.26 | 0.01 | 99 | 993.9 | |
| 20260504032516 | 51 | 0.0 | 0.0 | 0.00 | 0.27 | 0.01 | 98 | 994.0 | |
| 20260504031517 | 52 | 0.0 | 0.0 | 0.00 | 0.28 | 0.01 | 98 | 994.0 | |
| 20260504030518 | 52 | 0.0 | 0.0 | 0.00 | 0.28 | 0.01 | 98 | 994.1 | |
| 20260504025520 | 52 | 0.0 | 0.0 | 0.00 | 0.30 | 0.01 | 98 | 994.0 | |
| 20260504024516 | 52 | 0.0 | 0.0 | 0.00 | 0.31 | 0.01 | 98 | 993.9 | |
| 20260504023557 | 52 | 0.0 | 0.0 | 0.00 | 0.31 | 0.01 | 98 | 993.9 | |
| 20260504022518 | 52 | 0.0 | 0.0 | 0.00 | 0.32 | 0.01 | 98 | 994.0 | |
| 20260504021519 | 52 | 216 | 0.0 | 1.0 | 0.00 | 0.33 | 0.01 | 98 | 994.0 |
| 20260504020516 | 51 | 0.0 | 0.0 | 0.00 | 0.33 | 0.01 | 98 | 994.0 | |
| 20260504015537 | 51 | 215 | 0.0 | 1.0 | 0.00 | 0.33 | 0.01 | 98 | 994.1 |
| 20260504014518 | 51 | 0.0 | 0.0 | 0.00 | 0.33 | 0.01 | 98 | 994.0 | |
| 20260504013539 | 51 | 216 | 0.0 | 1.0 | 0.00 | 0.33 | 0.01 | 98 | 993.9 |
| 20260504012515 | 51 | 0.0 | 0.0 | 0.00 | 0.33 | 0.01 | 98 | 993.9 | |
| 20260504011537 | 51 | 0.0 | 0.0 | 0.00 | 0.33 | 0.01 | 98 | 993.8 | |
| 20260504010518 | 51 | 0.0 | 0.0 | 0.00 | 0.33 | 0.01 | 98 | 993.8 | |
| 20260504005519 | 51 | 215 | 0.0 | 1.0 | 0.00 | 0.33 | 0.01 | 98 | 993.9 |
| 20260504004535 | 51 | 0.0 | 0.0 | 0.00 | 0.33 | 0.01 | 98 | 994.0 | |
| 20260504003517 | 51 | 0.0 | 0.0 | 0.00 | 0.33 | 0.01 | 98 | 993.9 | |
| 20260504002538 | 51 | 0.0 | 0.0 | 0.00 | 0.33 | 0.01 | 98 | 994.0 | |
| 20260504001519 | 51 | 0.0 | 0.0 | 0.00 | 0.33 | 0.01 | 98 | 993.9 | |
| 20260504000520 | 51 | 0.0 | 0.0 | 0.01 | 0.33 | 0.01 | 98 | 994.1 | |
| 20260503235516 | 51 | 0.0 | 0.0 | 0.01 | 0.33 | 0.01 | 98 | 994.1 | |
| 20260503234517 | 51 | 0.0 | 0.0 | 0.01 | 0.33 | 0.01 | 98 | 994.2 | |
| 20260503233518 | 51 | 0.0 | 0.0 | 0.01 | 0.33 | 0.01 | 98 | 994.2 | |
| 20260503232540 | 51 | 0.0 | 0.0 | 0.01 | 0.33 | 0.01 | 98 | 994.1 | |
| 20260503231536 | 51 | 0.0 | 0.0 | 0.01 | 0.33 | 0.01 | 97 | 994.1 | |
| 20260503230517 | 51 | 0.0 | 0.0 | 0.00 | 0.32 | 0.00 | 98 | 994.1 | |
| 20260503225518 | 51 | 0.0 | 0.0 | 0.00 | 0.32 | 0.00 | 97 | 994.1 | |
| 20260503224519 | 51 | 0.0 | 0.0 | 0.00 | 0.32 | 0.00 | 97 | 994.1 | |
| 20260503223520 | 51 | 0.0 | 0.0 | 0.00 | 0.32 | 0.00 | 97 | 994.0 | |
| 20260503222516 | 51 | 0.0 | 0.0 | 0.00 | 0.32 | 0.00 | 97 | 994.0 | |
| 20260503221538 | 51 | 0.0 | 0.0 | 0.00 | 0.32 | 0.00 | 97 | 994.0 | |
| 20260503220539 | 51 | 0.0 | 0.0 | 0.00 | 0.32 | 0.00 | 97 | 994.0 | |
| 20260503215520 | 52 | 0.0 | 0.0 | 0.00 | 0.32 | 0.32 | 97 | 994.1 | |
| 20260503214516 | 52 | 0.0 | 0.0 | 0.00 | 0.32 | 0.32 | 97 | 994.2 | |
| 20260503213517 | 52 | 0.0 | 0.0 | 0.00 | 0.32 | 0.32 | 97 | 994.2 | |
| 20260503212519 | 53 | 0.0 | 0.0 | 0.00 | 0.32 | 0.32 | 97 | 994.2 | |
| 20260503211520 | 53 | 0.0 | 0.0 | 0.00 | 0.32 | 0.32 | 96 | 994.2 | |
| 20260503210516 | 53 | 0.0 | 0.0 | 0.00 | 0.32 | 0.32 | 97 | 994.1 | |
| 20260503205537 | 54 | 0.0 | 0.0 | 0.00 | 0.32 | 0.32 | 96 | 994.0 | |
| 20260503204539 | 54 | 0.0 | 0.0 | 0.00 | 0.32 | 0.32 | 96 | 993.9 | |
| 20260503203520 | 54 | 0.0 | 0.0 | 0.00 | 0.32 | 0.32 | 96 | 993.7 | |
| 20260503202516 | 54 | 0.0 | 0.0 | 0.00 | 0.32 | 0.32 | 96 | 993.6 | |
| 20260503201517 | 55 | 0.0 | 0.0 | 0.00 | 0.32 | 0.32 | 96 | 993.5 | |
| 20260503200518 | 55 | 0.0 | 0.0 | 0.00 | 0.32 | 0.32 | 95 | 993.3 | |
| 20260503195540 | 56 | 0.0 | 0.0 | 0.00 | 0.32 | 0.32 | 95 | 993.2 | |
| 20260503194516 | 56 | 0.0 | 0.0 | 0.00 | 0.32 | 0.32 | 95 | 993.0 | |
| 20260503193517 | 57 | 0.0 | 0.0 | 0.00 | 0.32 | 0.32 | 94 | 992.9 | |
| 20260503192518 | 57 | 0.0 | 0.0 | 0.00 | 0.32 | 0.32 | 94 | 992.9 | |
| 20260503191540 | 58 | 0.0 | 0.0 | 0.02 | 0.32 | 0.32 | 94 | 992.8 | |
| 20260503190516 | 58 | 0.0 | 0.0 | 0.06 | 0.32 | 0.32 | 93 | 992.7 | |
| 20260503185536 | 59 | 200 | 0.0 | 2.0 | 0.06 | 0.32 | 0.32 | 93 | 992.5 |
| 20260503184518 | 59 | 233 | 0.0 | 2.0 | 0.06 | 0.32 | 0.32 | 92 | 992.5 |
| 20260503183539 | 60 | 212 | 1.0 | 3.0 | 0.06 | 0.32 | 0.32 | 91 | 992.7 |
| 20260503182515 | 60 | 145 | 1.0 | 2.0 | 0.06 | 0.32 | 0.32 | 89 | 992.7 |
| 20260503181516 | 61 | 211 | 1.0 | 5.0 | 0.04 | 0.30 | 0.30 | 87 | 992.8 |
| 20260503180517 | 62 | 0.0 | 0.0 | 0.00 | 0.26 | 0.26 | 84 | 992.5 | |
| 20260503175518 | 62 | 216 | 0.0 | 1.0 | 0.00 | 0.26 | 0.26 | 81 | 992.3 |
| 20260503174519 | 63 | 221 | 0.0 | 2.0 | 0.00 | 0.26 | 0.26 | 79 | 992.4 |
| 20260503173516 | 64 | 0.0 | 0.0 | 0.00 | 0.26 | 0.26 | 78 | 992.3 | |
| 20260503172517 | 65 | 255 | 0.0 | 1.0 | 0.00 | 0.26 | 0.26 | 74 | 992.1 |
| 20260503171518 | 66 | 222 | 1.0 | 5.0 | 0.00 | 0.26 | 0.26 | 71 | 992.1 |
| 20260503170539 | 68 | 208 | 2.0 | 6.0 | 0.00 | 0.26 | 0.26 | 68 | 992.0 |
| 20260503150517 | 67 | 217 | 2.0 | 7.0 | 0.00 | 0.26 | 0.26 | 69 | 992.4 |
| 20260503130518 | 64 | 217 | 2.0 | 8.0 | 0.00 | 0.26 | 0.26 | 87 | 993.1 |
| 20260503110516 | 63 | 220 | 3.0 | 10.0 | 0.00 | 0.17 | 0.17 | 80 | 993.6 |
| 20260503081518 | 57 | 213 | 2.0 | 6.0 | 0.02 | 0.17 | 0.17 | 96 | 994.0 |
| 20260503080520 | 57 | 214 | 2.0 | 7.0 | 0.02 | 0.17 | 0.17 | 96 | 994.0 |
| 20260503072519 | 56 | 200 | 3.0 | 10.0 | 0.02 | 0.15 | 0.15 | 96 | 994.0 |
| 20260503071515 | 56 | 222 | 1.0 | 5.0 | 0.02 | 0.15 | 0.15 | 97 | 993.9 |
| 20260503070516 | 56 | 216 | 3.0 | 7.0 | 0.02 | 0.14 | 0.14 | 97 | 993.8 |
| 20260503054515 | 55 | 130 | 0.0 | 2.0 | 0.01 | 0.12 | 0.12 | 97 | 993.7 |
| 20260503053516 | 55 | 173 | 0.0 | 3.0 | 0.01 | 0.12 | 0.12 | 97 | 993.7 |
| 20260503052517 | 55 | 243 | 0.0 | 2.0 | 0.01 | 0.12 | 0.12 | 97 | 993.7 |
| 20260503051519 | 55 | 205 | 0.0 | 3.0 | 0.02 | 0.12 | 0.12 | 96 | 993.7 |
| 20260503050514 | 55 | 0.0 | 1.0 | 0.02 | 0.11 | 0.11 | 96 | 993.8 | |
| 20260503045616 | 55 | 208 | 0.0 | 1.0 | 0.02 | 0.11 | 0.11 | 96 | 993.8 |
| 20260503044517 | 55 | 0.0 | 0.0 | 0.03 | 0.11 | 0.11 | 96 | 993.7 | |
| 20260503043518 | 56 | 185 | 0.0 | 1.0 | 0.04 | 0.11 | 0.11 | 96 | 993.7 |
| 20260503042519 | 56 | 0.0 | 0.0 | 0.05 | 0.11 | 0.11 | 96 | 993.8 | |
| 20260503041535 | 56 | 159 | 0.0 | 0.0 | 0.05 | 0.10 | 0.10 | 96 | 993.9 |
| 20260503040517 | 56 | 0.0 | 0.0 | 0.05 | 0.10 | 0.09 | 95 | 993.9 | |
| 20260503035538 | 56 | 0.0 | 0.0 | 0.06 | 0.09 | 0.09 | 95 | 993.8 | |
| 20260503034519 | 56 | 258 | 0.0 | 2.0 | 0.06 | 0.09 | 0.08 | 95 | 993.8 |